RH
88 88 88 90 92 92 94 90 88 85 84 87 92 85 88 95 97 93 83 86 83 79 78 74 76 78 77 76 75 75 71 70 70 71 78 82 82 86
90 92 93 92 92 93 93 93 91 88 91 86 92 97 97 98 96 87 80 86 82 81 80 81 80 79 74 74 74 74 71 69 69 71 83 88 89 87
97 98 95 96 98 98 99 98 98 95 98 99 99 98 99 96 89 82 80 74 73 83 82 78 80 80 71 72 74 72 72 70 69 76 88 92 94 88
98 99 98 99 99 98 99 98 98 98 98 98 99 100 98 96 86 82 78 68 70 77 81 79 81 78 72 71 73 72 73 71 69 80 90 94 95 90
96 98 98 99 98 98 99 99 99 99 99 98 99 99 99 97 93 86 81 78 73 77 77 80 81 80 76 73 70 72 73 70 69 84 91 94 95 91
98 98 97 98 98 98 98 98 99 99 99 99 99 99 97 95 88 88 87 81 76 72 72 72 77 80 77 68 68 73 71 68 70 86 91 96 97 91
99 98 98 98 100 98 98 98 98 98 99 99 100 99 98 99 94 87 84 82 79 78 76 72 70 70 66 63 67 74 70 67 71 86 92 98 95 94
98 99 99 100 99 99 99 98 94 98 98 99 100 98 93 86 84 87 90 91 88 79 78 76 66 72 64 59 68 72 70 68 74 86 93 98 96 96
99 99 99 99 99 99 99 98 98 97 95 96 97 96 90 84 90 96 89 90 87 80 77 82 69 68 64 56 69 74 73 70 78 85 92 97 97 97
99 99 99 99 99 99 99 99 99 99 98 96 93 90 85 87 81 85 88 87 87 80 75 92 73 68 63 61 72 77 78 73 77 80 90 94 98 97
97 97 97 99 97 96 98 99 97 99 95 94 94 92 90 87 85 88 97 98 97 90 82 83 79 75 68 63 64 80 84 80 78 77 82 94 96 95
89 92 93 92 95 94 94 96 99 98 98 98 97 94 88 87 86 83 92 100 100 98 85 92 81 78 88 71 73 73 75 83 84 86 77 89 94 95
92 91 93 92 95 94 90 92 92 96 95 96 92 88 89 92 96 90 91 99 100 99 84 91 97 86 89 82 75 80 80 78 78 80 88 79 89 93
90 89 91 93 94 94 90 89 92 94 98 94 91 87 87 95 98 96 96 96 95 99 86 98 100 99 97 80 70 76 83 86 90 93 92 80 83 83
86 89 92 94 96 96 94 91 93 96 94 92 91 91 91 93 100 99 99 99 100 99 100 100 100 92 97 94 83 80 84 89 90 94 88 89 89 82
92 92 93 94 93 94 97 93 96 91 91 91 90 91 92 97 97 96 98 97 97 97 98 100 98 92 96 90 88 82 83 93 90 92 87 86 77 73
94 96 99 99 99 99 98 98 98 98 98 97 96 96 93 94 94 94 93 94 89 92 97 96 96 94 94 95 93 83 79 85 90 93 92 93 83 74
97 99 98 98 98 98 98 98 98 97 96 96 96 95 95 96 97 96 94 92 89 89 90 96 97 95 89 84 88 83 83 84 89 90 86 86 80 67
98 98 98 97 96 96 97 97 98 97 98 98 98 98 98 96 94 98 97 92 90 88 94 95 96 88 84 74 80 81 88 86 86 86 82 80 80 71
98 98 98 97 95 96 97 99 99 99 99 98 98 98 98 95 97 97 95 94 89 90 96 97 94 91 85 87 87 91 83 88 83 82 86 81 78 77
98 98 98 97 96 96 96 99 99 100 99 99 99 98 98 97 97 96 94 90 88 92 97 96 91 82 94 92 88 87 86 84 80 93 90 80 75 68
98 98 97 98 98 99 100 99 99 99 100 99 99 98 97 96 97 96 94 94 90 89 87 91 96 96 94 90 84 89 83 81 81 83 79 76 91 78
95 97 98 98 99 99 100 99 99 99 99 99 99 99 97 97 96 95 93 92 90 90 89 96 95 88 88 88 89 88 91 89 82 83 81 80 83 82
Wind_Speed
11 10 8 7 7 6 5 7 8 6 5 6 5 8 5 4 5 3 3 6 5 3 4 3 1 1 3 5 8 12 13 16 18 19 21 23 23 23
8 11 10 7 7 7 5 5 5 7 8 4 6 3 5 5 8 6 5 4 4 4 2 1 4 4 3 6 8 11 14 16 19 20 23 24 24 22
7 9 10 6 6 4 5 4 6 7 9 2 1 2 4 6 6 5 5 4 4 2 2 2 2 4 1 5 8 10 13 16 19 21 23 25 26 20
8 8 5 5 5 7 6 9 8 8 8 8 3 3 3 5 7 6 4 3 2 2 4 2 2 3 1 3 7 10 14 16 18 20 23 26 23 16
9 8 9 8 9 6 7 6 6 3 4 3 4 2 1 2 2 2 2 2 3 3 4 4 5 5 2 4 6 8 12 15 17 19 22 24 20 14
7 9 7 10 12 9 9 9 7 6 4 3 2 3 2 3 1 3 3 3 2 1 1 4 5 4 3 2 4 7 10 13 15 17 20 21 15 15
7 8 11 12 12 11 8 9 9 7 6 4 2 2 3 3 7 4 3 2 2 2 2 3 2 3 2 1 3 6 9 12 14 16 18 18 8 12
11 10 7 7 9 13 15 13 15 12 10 7 4 4 3 4 4 4 4 4 4 3 3 3 1 2 2 1 3 6 8 10 12 15 17 17 9 10
1 3 2 2 6 3 5 7 7 6 5 7 6 4 5 7 6 5 4 3 3 3 3 3 2 2 1 1 4 6 8 9 10 13 15 17 6 9
6 6 6 5 3 4 5 5 5 7 3 4 6 5 3 6 6 6 6 5 3 2 2 2 2 2 1 2 4 6 8 7 9 10 13 14 11 11
4 3 7 8 12 12 7 5 4 2 7 6 6 8 8 14 10 7 5 6 3 3 3 2 2 2 0 1 2 6 5 9 8 10 12 12 12 15
2 3 6 4 12 17 12 11 6 5 7 4 5 6 7 9 14 5 7 7 3 3 4 4 3 2 2 1 1 2 2 5 6 10 10 11 10 5
2 3 3 8 11 14 12 8 10 12 8 6 4 4 3 4 4 4 4 3 3 1 4 3 3 3 1 2 1 1 1 2 3 4 9 11 11 7
5 4 4 9 11 13 11 10 12 12 10 6 5 5 4 3 2 3 4 4 4 3 5 3 3 2 2 1 1 1 1 2 1 1 2 3 9 9
5 6 9 12 14 13 15 14 15 6 6 6 6 6 4 3 4 4 5 6 5 3 3 2 2 3 2 1 2 1 2 2 0 1 0 2 2 2
7 5 7 9 11 10 10 10 7 7 7 6 6 4 4 6 5 4 3 4 3 2 3 2 4 3 3 2 1 2 2 2 1 2 2 1 1 1
8 3 3 4 6 6 7 8 5 7 7 7 5 7 7 6 5 4 3 3 3 4 4 3 3 2 1 4 3 3 3 2 2 3 2 2 2 3
7 5 6 7 8 8 8 8 8 11 7 7 6 8 7 7 6 5 3 3 4 4 4 4 5 3 1 3 6 3 3 3 2 3 2 2 2 2
7 7 8 7 8 8 8 8 9 8 8 8 8 8 7 7 9 6 5 4 4 4 4 6 5 3 4 4 3 10 3 3 3 3 3 2 2 2
7 8 8 8 8 8 8 8 7 7 8 9 8 9 8 8 7 7 6 6 6 4 4 5 5 5 4 4 4 4 6 3 2 3 3 2 1 2
8 7 7 8 8 8 8 8 8 8 9 9 9 10 10 9 8 8 7 11 9 5 7 7 6 7 3 3 3 3 3 4 2 2 3 2 2 1
8 8 8 8 8 7 7 8 8 8 8 9 10 10 10 10 9 9 8 8 8 6 4 4 5 5 4 2 3 4 3 2 3 4 4 1 2 2
10 8 8 8 7 6 6 7 8 8 9 9 9 10 10 10 10 9 8 8 7 7 5 6 6 6 5 4 4 3 4 3 2 3 2 6 7 6
Wind_Direction
208 210 204 200 189 197 200 174 219 254 249 206 203 205 185 156 164 205 174 145 132 174 147 132 136 14 347 345 342 345 335 332 327 325 316 316 314 309
207 206 205 209 194 205 197 217 200 229 258 180 199 166 177 164 177 185 162 139 167 187 149 165 204 191 312 338 345 339 333 331 326 323 320 320 315 310
207 212 212 196 201 186 200 197 225 222 243 185 196 141 164 164 185 171 159 178 196 179 187 235 302 200 275 328 333 330 331 331 326 330 328 328 319 306
188 202 191 210 208 201 211 216 223 228 232 220 182 155 166 184 187 175 180 184 210 219 235 232 199 174 199 326 331 331 334 332 333 334 336 337 338 318
171 192 214 194 220 211 212 221 217 194 190 179 164 124 126 153 141 137 179 211 244 237 241 237 217 214 229 318 315 339 338 335 335 340 345 342 339 344
218 210 206 209 219 205 207 212 197 187 164 160 128 127 138 115 109 164 187 210 218 195 215 234 221 226 253 270 320 340 342 336 341 347 349 341 334 25
229 225 220 210 216 212 209 211 196 185 160 142 134 146 143 140 200 167 185 156 190 218 212 221 209 186 190 245 314 342 348 343 347 352 349 345 9 14
234 218 226 229 236 236 228 215 199 186 184 150 153 167 167 185 174 161 140 168 209 198 198 165 187 188 191 196 346 339 347 353 358 357 355 359 48 44
303 276 283 355 241 199 196 157 134 107 126 130 145 167 172 189 147 154 173 166 183 160 188 164 183 180 179 111 358 351 1 0 9 7 2 12 54 70
186 183 178 182 186 138 106 61 71 83 63 166 143 164 169 160 186 159 160 137 103 161 204 192 144 182 197 112 16 7 358 12 12 16 11 23 35 92
313 237 179 162 163 147 121 113 111 39 98 93 111 141 175 163 152 132 150 155 169 187 195 183 168 161 101 56 24 16 22 34 27 26 23 25 31 74
270 288 280 261 181 168 159 154 179 179 143 118 121 136 157 163 166 180 158 168 149 159 185 177 166 183 155 118 67 34 32 36 30 29 37 38 39 56
255 245 229 238 210 193 181 180 180 149 177 132 169 147 168 166 156 163 161 146 139 114 176 139 161 159 87 130 122 83 46 30 33 26 30 52 59 65
240 226 225 216 211 200 194 198 178 159 148 162 175 163 176 196 169 136 123 109 76 114 148 139 131 162 125 140 173 117 122 98 47 36 14 44 57 82
242 236 225 211 207 215 204 196 180 162 171 173 184 169 172 145 135 115 101 94 81 76 85 79 110 138 120 169 139 131 148 151 120 171 64 53 73 38
247 244 232 217 209 198 197 201 177 175 186 187 168 125 122 154 171 169 152 153 154 144 58 81 122 148 143 169 165 168 166 172 152 189 160 121 134 110
271 222 207 217 214 199 193 190 177 176 190 151 190 162 166 170 181 182 134 149 169 163 167 163 113 115 141 149 167 201 184 194 179 133 162 180 200 204
270 229 232 221 220 213 208 198 186 191 186 174 177 164 164 174 170 163 154 184 174 173 164 160 150 145 161 221 230 169 168 184 152 166 182 173 158 137
261 246 241 231 227 220 212 210 202 197 173 173 175 175 170 168 174 165 177 173 179 176 163 160 171 165 166 181 131 212 196 169 159 173 185 180 131 118
264 259 248 241 233 226 218 213 202 175 180 181 179 172 169 163 164 169 180 187 182 167 169 175 184 192 179 169 154 161 200 139 162 152 151 148 226 316
299 278 268 258 243 226 215 204 201 193 188 183 183 176 172 166 174 173 179 188 177 179 183 195 200 162 103 120 131 142 151 223 180 168 144 115 97 78
292 289 282 263 251 225 212 202 201 198 193 189 185 175 171 171 171 168 173 181 184 190 181 145 140 137 165 182 152 134 143 141 188 212 201 160 138 128
302 292 284 274 252 229 217 207 206 202 199 193 184 174 168 171 171 169 169 176 183 172 158 149 154 161 176 177 153 148 144 149 161 161 164 229 231 240